QPF
0.04 0.04 0.03 0.03 0.02 0.02 0.01 0.01 0.01 0.01 0.01 0.02 0.02 0.01 0.00 0.00 0.01 0.01 0.01 0.00 0.00 0.01 0.03 0.03 0.02 0.02 0.02 0.02 0.02 0.02 0.02 0.02 0.02 0.03 0.06 0.05 0.04 0.05 0.05 0.03 0.02 0.02 0.02
0.03 0.04 0.03 0.03 0.02 0.01 0.01 0.01 0.01 0.00 0.01 0.01 0.02 0.01 0.01 0.01 0.00 0.00 0.00 0.00 0.01 0.01 0.02 0.02 0.02 0.02 0.02 0.02 0.02 0.02 0.01 0.01 0.01 0.01 0.02 0.03 0.03 0.03 0.03 0.03 0.03 0.02 0.02
0.04 0.05 0.05 0.04 0.03 0.02 0.01 0.01 0.01 0.01 0.00 0.01 0.01 0.02 0.01 0.01 0.01 0.01 0.00 0.00 0.01 0.01 0.01 0.01 0.02 0.02 0.02 0.02 0.02 0.02 0.01 0.01 0.01 0.01 0.01 0.02 0.02 0.02 0.02 0.02 0.02 0.03 0.03
0.04 0.06 0.06 0.05 0.04 0.03 0.02 0.01 0.01 0.01 0.00 0.00 0.01 0.01 0.01 0.01 0.01 0.01 0.01 0.01 0.01 0.01 0.00 0.00 0.01 0.01 0.02 0.02 0.03 0.03 0.02 0.02 0.01 0.01 0.01 0.01 0.01 0.02 0.02 0.02 0.02 0.02 0.03
0.03 0.04 0.04 0.04 0.03 0.03 0.02 0.02 0.02 0.01 0.01 0.00 0.01 0.01 0.01 0.01 0.01 0.02 0.01 0.01 0.01 0.01 0.01 0.00 0.00 0.01 0.02 0.02 0.03 0.03 0.03 0.02 0.02 0.01 0.01 0.01 0.01 0.01 0.01 0.01 0.01 0.01 0.02
0.04 0.04 0.03 0.03 0.04 0.04 0.03 0.03 0.02 0.02 0.01 0.01 0.01 0.01 0.01 0.01 0.01 0.02 0.01 0.01 0.01 0.01 0.01 0.01 0.00 0.00 0.01 0.02 0.03 0.03 0.03 0.03 0.02 0.01 0.01 0.01 0.01 0.01 0.02 0.02 0.02 0.01 0.01
0.03 0.03 0.03 0.02 0.03 0.03 0.03 0.03 0.03 0.02 0.01 0.01 0.01 0.01 0.00 0.00 0.01 0.01 0.01 0.01 0.01 0.01 0.01 0.01 0.01 0.01 0.01 0.01 0.03 0.03 0.03 0.03 0.03 0.02 0.01 0.01 0.01 0.01 0.01 0.02 0.03 0.03 0.02
0.03 0.03 0.03 0.02 0.02 0.02 0.03 0.03 0.04 0.04 0.03 0.02 0.01 0.01 0.01 0.01 0.00 0.00 0.01 0.01 0.01 0.01 0.01 0.01 0.01 0.01 0.01 0.01 0.02 0.03 0.03 0.02 0.02 0.02 0.02 0.01 0.01 0.01 0.01 0.02 0.02 0.03 0.03
0.02 0.02 0.02 0.02 0.02 0.02 0.02 0.02 0.02 0.03 0.03 0.03 0.02 0.01 0.01 0.01 0.01 0.00 0.00 0.00 0.01 0.01 0.00 0.00 0.00 0.01 0.01 0.01 0.01 0.01 0.02 0.02 0.02 0.03 0.02 0.02 0.02 0.02 0.02 0.02 0.02 0.03 0.03
0.03 0.02 0.02 0.02 0.02 0.02 0.01 0.01 0.01 0.02 0.02 0.03 0.02 0.02 0.01 0.01 0.01 0.01 0.01 0.00 0.01 0.01 0.01 0.01 0.01 0.01 0.01 0.01 0.01 0.01 0.01 0.01 0.02 0.02 0.03 0.02 0.02 0.02 0.02 0.02 0.02 0.02 0.03
0.03 0.03 0.02 0.02 0.02 0.02 0.01 0.01 0.01 0.02 0.02 0.02 0.02 0.02 0.01 0.01 0.01 0.01 0.01 0.00 0.00 0.00 0.00 0.00 0.01 0.01 0.01 0.01 0.01 0.01 0.01 0.01 0.01 0.01 0.02 0.02 0.02 0.02 0.02 0.02 0.02 0.02 0.02
0.02 0.03 0.03 0.03 0.02 0.01 0.01 0.01 0.01 0.01 0.02 0.02 0.02 0.01 0.01 0.01 0.01 0.01 0.01 0.00 0.00 0.00 0.00 0.00 0.00 0.00 0.01 0.01 0.01 0.01 0.01 0.01 0.01 0.01 0.01 0.02 0.02 0.02 0.02 0.02 0.02 0.02 0.02
0.02 0.03 0.03 0.03 0.03 0.02 0.01 0.01 0.02 0.02 0.02 0.02 0.02 0.01 0.01 0.01 0.01 0.01 0.01 0.01 0.01 0.00 0.00 0.00 0.00 0.00 0.01 0.01 0.01 0.01 0.01 0.01 0.01 0.01 0.01 0.01 0.01 0.01 0.01 0.02 0.02 0.02 0.02
0.02 0.03 0.03 0.03 0.03 0.03 0.02 0.01 0.01 0.01 0.01 0.01 0.01 0.01 0.01 0.01 0.01 0.01 0.01 0.01 0.01 0.01 0.01 0.00 0.00 0.01 0.01 0.01 0.02 0.02 0.01 0.01 0.01 0.01 0.01 0.01 0.01 0.01 0.01 0.01 0.01 0.01 0.01
0.02 0.03 0.04 0.04 0.03 0.02 0.02 0.02 0.01 0.01 0.01 0.01 0.01 0.01 0.01 0.01 0.01 0.01 0.01 0.01 0.02 0.01 0.01 0.00 0.00 0.01 0.01 0.02 0.02 0.02 0.02 0.01 0.01 0.01 0.01 0.01 0.01 0.01 0.01 0.01 0.00 0.00 0.01
0.02 0.03 0.04 0.05 0.04 0.04 0.02 0.02 0.01 0.01 0.01 0.01 0.01 0.01 0.01 0.01 0.01 0.01 0.01 0.01 0.01 0.02 0.02 0.01 0.00 0.00 0.01 0.02 0.03 0.03 0.02 0.02 0.01 0.01 0.01 0.01 0.01 0.01 0.01 0.01 0.01 0.01 0.01
0.02 0.03 0.04 0.05 0.05 0.05 0.04 0.03 0.02 0.01 0.01 0.01 0.01 0.01 0.01 0.01 0.01 0.01 0.01 0.01 0.01 0.01 0.02 0.01 0.01 0.01 0.01 0.01 0.02 0.03 0.03 0.03 0.02 0.02 0.02 0.02 0.01 0.01 0.01 0.00 0.00 0.01 0.01
0.03 0.03 0.03 0.04 0.05 0.06 0.05 0.05 0.04 0.02 0.02 0.02 0.01 0.01 0.01 0.01 0.01 0.01 0.01 0.01 0.02 0.01 0.01 0.01 0.01 0.01 0.01 0.01 0.01 0.02 0.03 0.03 0.02 0.02 0.02 0.01 0.01 0.01 0.01 0.01 0.00 0.00 0.00
0.02 0.03 0.03 0.04 0.04 0.04 0.04 0.04 0.04 0.03 0.02 0.02 0.02 0.02 0.02 0.02 0.02 0.02 0.01 0.01 0.01 0.01 0.01 0.01 0.01 0.01 0.01 0.01 0.01 0.01 0.02 0.03 0.02 0.02 0.01 0.01 0.01 0.01 0.01 0.01 0.00 0.00 0.00
0.02 0.02 0.03 0.03 0.04 0.04 0.03 0.03 0.03 0.03 0.02 0.02 0.02 0.02 0.02 0.02 0.02 0.02 0.02 0.01 0.01 0.01 0.02 0.02 0.01 0.01 0.01 0.00 0.01 0.01 0.02 0.03 0.02 0.01 0.01 0.01 0.01 0.01 0.01 0.01 0.01 0.00 0.00
0.03 0.02 0.02 0.03 0.03 0.04 0.03 0.03 0.03 0.02 0.02 0.02 0.02 0.01 0.01 0.01 0.01 0.01 0.01 0.01 0.01 0.02 0.02 0.02 0.01 0.01 0.01 0.01 0.01 0.01 0.01 0.02 0.03 0.02 0.01 0.01 0.01 0.01 0.01 0.01 0.01 0.01 0.01
0.03 0.03 0.02 0.02 0.03 0.03 0.03 0.03 0.03 0.03 0.02 0.02 0.02 0.02 0.01 0.01 0.01 0.01 0.01 0.01 0.02 0.02 0.02 0.02 0.02 0.01 0.01 0.01 0.01 0.01 0.01 0.02 0.03 0.03 0.02 0.02 0.02 0.02 0.02 0.01 0.01 0.01 0.01
0.03 0.03 0.03 0.02 0.02 0.02 0.03 0.03 0.03 0.03 0.02 0.01 0.02 0.02 0.01 0.01 0.01 0.01 0.01 0.02 0.02 0.02 0.03 0.03 0.03 0.02 0.02 0.01 0.01 0.01 0.01 0.02 0.03 0.03 0.03 0.03 0.02 0.02 0.02 0.02 0.02 0.02 0.02
0.03 0.03 0.03 0.03 0.02 0.02 0.03 0.04 0.04 0.03 0.02 0.02 0.02 0.01 0.01 0.01 0.01 0.01 0.01 0.01 0.02 0.02 0.02 0.02 0.01 0.01 0.01 0.01 0.01 0.02 0.02 0.02 0.02 0.02 0.03 0.03 0.03 0.02 0.02 0.02 0.02 0.02 0.02
0.03 0.03 0.03 0.03 0.02 0.02 0.03 0.03 0.04 0.04 0.03 0.02 0.02 0.01 0.02 0.01 0.02 0.02 0.02 0.02 0.01 0.01 0.01 0.01 0.01 0.01 0.01 0.01 0.01 0.01 0.01 0.02 0.01 0.01 0.02 0.02 0.02 0.02 0.02 0.02 0.02 0.02 0.02
0.03 0.03 0.03 0.02 0.02 0.03 0.03 0.03 0.03 0.03 0.03 0.03 0.02 0.02 0.02 0.02 0.02 0.02 0.02 0.02 0.02 0.01 0.01 0.01 0.01 0.01 0.01 0.01 0.01 0.01 0.01 0.01 0.01 0.01 0.01 0.01 0.01 0.02 0.02 0.02 0.02 0.02 0.02
MSLP
1024.68 1024.91 1025.08 1025.21 1025.30 1025.35 1025.39 1025.42 1025.45 1025.49 1025.54 1025.61 1025.71 1025.82 1025.96 1026.12 1026.29 1026.44 1026.58 1026.68 1026.74 1026.77 1026.77 1026.75 1026.73 1026.72 1026.74 1026.78 1026.84 1026.90 1026.96 1027.00 1027.02 1027.02 1027.01 1027.00 1026.99 1027.00 1027.01 1027.02 1027.01 1026.98 1026.91
1024.78 1024.99 1025.16 1025.30 1025.42 1025.53 1025.62 1025.72 1025.81 1025.91 1026.02 1026.14 1026.28 1026.43 1026.58 1026.74 1026.90 1027.05 1027.16 1027.24 1027.29 1027.30 1027.29 1027.28 1027.26 1027.27 1027.30 1027.35 1027.41 1027.48 1027.53 1027.58 1027.60 1027.60 1027.60 1027.60 1027.61 1027.62 1027.63 1027.63 1027.61 1027.54 1027.45
1024.83 1025.04 1025.22 1025.38 1025.55 1025.71 1025.88 1026.05 1026.23 1026.41 1026.59 1026.77 1026.94 1027.12 1027.28 1027.44 1027.58 1027.69 1027.77 1027.82 1027.84 1027.83 1027.81 1027.79 1027.78 1027.79 1027.82 1027.87 1027.94 1028.00 1028.05 1028.10 1028.12 1028.13 1028.14 1028.16 1028.17 1028.20 1028.21 1028.21 1028.17 1028.09 1027.98
1024.87 1025.07 1025.27 1025.47 1025.68 1025.91 1026.15 1026.41 1026.67 1026.93 1027.17 1027.41 1027.62 1027.82 1027.99 1028.13 1028.25 1028.33 1028.38 1028.39 1028.38 1028.35 1028.31 1028.29 1028.27 1028.29 1028.32 1028.37 1028.42 1028.48 1028.52 1028.55 1028.58 1028.59 1028.61 1028.63 1028.65 1028.68 1028.70 1028.70 1028.67 1028.59 1028.47
1024.89 1025.10 1025.32 1025.55 1025.81 1026.10 1026.41 1026.73 1027.06 1027.39 1027.69 1027.97 1028.22 1028.44 1028.61 1028.75 1028.85 1028.91 1028.93 1028.93 1028.89 1028.85 1028.81 1028.78 1028.77 1028.77 1028.80 1028.84 1028.88 1028.92 1028.95 1028.97 1028.97 1028.98 1029.00 1029.02 1029.05 1029.08 1029.10 1029.11 1029.08 1029.01 1028.91
1024.90 1025.12 1025.35 1025.62 1025.91 1026.24 1026.60 1026.97 1027.35 1027.72 1028.06 1028.38 1028.65 1028.89 1029.08 1029.22 1029.32 1029.38 1029.40 1029.39 1029.37 1029.33 1029.29 1029.27 1029.26 1029.27 1029.28 1029.31 1029.33 1029.35 1029.36 1029.36 1029.35 1029.34 1029.35 1029.36 1029.39 1029.41 1029.44 1029.45 1029.43 1029.37 1029.29
1024.89 1025.12 1025.37 1025.65 1025.96 1026.32 1026.70 1027.09 1027.49 1027.88 1028.24 1028.57 1028.87 1029.13 1029.34 1029.50 1029.63 1029.71 1029.75 1029.77 1029.77 1029.76 1029.75 1029.74 1029.74 1029.75 1029.77 1029.78 1029.79 1029.78 1029.77 1029.75 1029.73 1029.71 1029.69 1029.70 1029.71 1029.73 1029.75 1029.75 1029.74 1029.70 1029.64
1024.84 1025.08 1025.33 1025.63 1025.95 1026.31 1026.69 1027.08 1027.47 1027.86 1028.23 1028.57 1028.88 1029.15 1029.40 1029.60 1029.76 1029.89 1029.98 1030.05 1030.10 1030.13 1030.15 1030.17 1030.19 1030.21 1030.23 1030.24 1030.23 1030.22 1030.19 1030.16 1030.13 1030.09 1030.07 1030.05 1030.05 1030.06 1030.07 1030.07 1030.06 1030.04 1029.99
1024.73 1024.99 1025.26 1025.56 1025.88 1026.23 1026.60 1026.97 1027.34 1027.71 1028.06 1028.40 1028.73 1029.02 1029.30 1029.54 1029.76 1029.94 1030.09 1030.22 1030.32 1030.40 1030.47 1030.52 1030.57 1030.60 1030.63 1030.64 1030.64 1030.63 1030.60 1030.57 1030.53 1030.50 1030.47 1030.44 1030.43 1030.42 1030.42 1030.42 1030.41 1030.40 1030.36
1024.59 1024.86 1025.15 1025.46 1025.78 1026.12 1026.47 1026.81 1027.16 1027.50 1027.84 1028.17 1028.49 1028.81 1029.11 1029.40 1029.66 1029.89 1030.10 1030.29 1030.44 1030.57 1030.67 1030.76 1030.83 1030.89 1030.93 1030.96 1030.97 1030.97 1030.96 1030.94 1030.92 1030.89 1030.87 1030.85 1030.83 1030.82 1030.81 1030.81 1030.80 1030.79 1030.77
1024.41 1024.72 1025.03 1025.36 1025.69 1026.02 1026.35 1026.67 1026.99 1027.31 1027.62 1027.94 1028.27 1028.59 1028.91 1029.22 1029.52 1029.79 1030.04 1030.26 1030.45 1030.61 1030.75 1030.86 1030.96 1031.04 1031.10 1031.15 1031.19 1031.22 1031.24 1031.25 1031.25 1031.25 1031.24 1031.23 1031.22 1031.21 1031.20 1031.19 1031.19 1031.18 1031.17
1024.24 1024.58 1024.93 1025.28 1025.63 1025.96 1026.28 1026.58 1026.88 1027.17 1027.48 1027.78 1028.10 1028.42 1028.74 1029.06 1029.37 1029.65 1029.92 1030.16 1030.36 1030.55 1030.70 1030.84 1030.95 1031.05 1031.14 1031.22 1031.29 1031.35 1031.40 1031.45 1031.48 1031.51 1031.53 1031.53 1031.54 1031.53 1031.53 1031.53 1031.53 1031.53 1031.53
1024.09 1024.48 1024.87 1025.25 1025.61 1025.94 1026.26 1026.56 1026.84 1027.12 1027.41 1027.70 1028.00 1028.31 1028.62 1028.93 1029.23 1029.51 1029.77 1030.00 1030.21 1030.40 1030.56 1030.71 1030.84 1030.96 1031.08 1031.18 1031.28 1031.38 1031.47 1031.55 1031.61 1031.67 1031.71 1031.74 1031.75 1031.76 1031.77 1031.78 1031.78 1031.80 1031.80
1024.01 1024.43 1024.85 1025.25 1025.62 1025.97 1026.28 1026.57 1026.85 1027.12 1027.39 1027.67 1027.96 1028.25 1028.54 1028.82 1029.10 1029.36 1029.60 1029.82 1030.03 1030.21 1030.38 1030.54 1030.69 1030.83 1030.96 1031.09 1031.22 1031.34 1031.46 1031.56 1031.65 1031.73 1031.78 1031.82 1031.85 1031.87 1031.88 1031.90 1031.91 1031.93 1031.96
1024.00 1024.44 1024.87 1025.28 1025.66 1026.00 1026.31 1026.59 1026.86 1027.13 1027.39 1027.66 1027.93 1028.20 1028.47 1028.73 1028.98 1029.21 1029.44 1029.65 1029.84 1030.03 1030.21 1030.38 1030.55 1030.71 1030.87 1031.02 1031.16 1031.30 1031.42 1031.53 1031.63 1031.71 1031.77 1031.81 1031.83 1031.85 1031.87 1031.89 1031.91 1031.94 1031.97
1024.08 1024.52 1024.94 1025.33 1025.69 1026.01 1026.31 1026.58 1026.84 1027.10 1027.36 1027.62 1027.88 1028.14 1028.39 1028.63 1028.86 1029.08 1029.29 1029.50 1029.70 1029.90 1030.09 1030.29 1030.48 1030.66 1030.83 1031.00 1031.15 1031.28 1031.40 1031.50 1031.58 1031.64 1031.69 1031.71 1031.73 1031.73 1031.74 1031.76 1031.78 1031.81 1031.85
1024.25 1024.65 1025.03 1025.38 1025.70 1025.99 1026.25 1026.51 1026.76 1027.01 1027.27 1027.53 1027.79 1028.04 1028.29 1028.52 1028.75 1028.96 1029.18 1029.39 1029.61 1029.83 1030.05 1030.27 1030.49 1030.69 1030.88 1031.04 1031.19 1031.31 1031.41 1031.48 1031.53 1031.56 1031.57 1031.57 1031.56 1031.54 1031.54 1031.54 1031.55 1031.58 1031.61
1024.51 1024.84 1025.16 1025.44 1025.70 1025.94 1026.17 1026.39 1026.63 1026.88 1027.14 1027.40 1027.67 1027.93 1028.18 1028.41 1028.64 1028.87 1029.10 1029.33 1029.57 1029.82 1030.07 1030.31 1030.55 1030.77 1030.96 1031.13 1031.26 1031.36 1031.43 1031.47 1031.48 1031.47 1031.44 1031.40 1031.36 1031.31 1031.27 1031.25 1031.25 1031.26 1031.29
1024.85 1025.09 1025.32 1025.52 1025.71 1025.89 1026.07 1026.27 1026.49 1026.74 1027.00 1027.27 1027.55 1027.82 1028.08 1028.33 1028.57 1028.81 1029.05 1029.30 1029.56 1029.83 1030.10 1030.36 1030.61 1030.84 1031.03 1031.19 1031.30 1031.38 1031.42 1031.42 1031.40 1031.35 1031.28 1031.20 1031.12 1031.04 1030.97 1030.92 1030.89 1030.88 1030.89
1025.27 1025.42 1025.55 1025.66 1025.78 1025.90 1026.04 1026.21 1026.42 1026.65 1026.92 1027.20 1027.48 1027.76 1028.03 1028.28 1028.53 1028.78 1029.02 1029.28 1029.55 1029.82 1030.10 1030.36 1030.61 1030.83 1031.01 1031.15 1031.25 1031.31 1031.32 1031.30 1031.25 1031.17 1031.07 1030.96 1030.85 1030.74 1030.64 1030.55 1030.49 1030.45 1030.43
1025.78 1025.83 1025.87 1025.90 1025.95 1026.02 1026.12 1026.26 1026.45 1026.68 1026.94 1027.22 1027.51 1027.78 1028.05 1028.30 1028.54 1028.78 1029.02 1029.27 1029.52 1029.77 1030.03 1030.28 1030.50 1030.70 1030.86 1030.99 1031.07 1031.10 1031.10 1031.07 1031.00 1030.91 1030.80 1030.67 1030.54 1030.40 1030.26 1030.14 1030.04 1029.96 1029.90
1026.37 1026.34 1026.31 1026.28 1026.27 1026.29 1026.36 1026.48 1026.65 1026.87 1027.12 1027.38 1027.65 1027.92 1028.17 1028.40 1028.62 1028.83 1029.04 1029.25 1029.47 1029.68 1029.90 1030.10 1030.29 1030.45 1030.59 1030.69 1030.75 1030.78 1030.78 1030.74 1030.68 1030.58 1030.47 1030.33 1030.18 1030.02 1029.85 1029.69 1029.55 1029.43 1029.33
1027.05 1026.96 1026.87 1026.80 1026.75 1026.74 1026.79 1026.88 1027.03 1027.22 1027.45 1027.69 1027.93 1028.17 1028.39 1028.59 1028.78 1028.95 1029.11 1029.27 1029.43 1029.59 1029.74 1029.89 1030.03 1030.14 1030.24 1030.31 1030.36 1030.39 1030.38 1030.36 1030.30 1030.21 1030.10 1029.96 1029.79 1029.61 1029.41 1029.21 1029.03 1028.86 1028.73
1027.81 1027.68 1027.56 1027.46 1027.38 1027.35 1027.37 1027.45 1027.57 1027.73 1027.92 1028.13 1028.33 1028.53 1028.72 1028.88 1029.02 1029.14 1029.25 1029.36 1029.46 1029.55 1029.64 1029.73 1029.81 1029.88 1029.93 1029.98 1030.01 1030.02 1030.02 1029.99 1029.94 1029.86 1029.75 1029.60 1029.41 1029.20 1028.97 1028.74 1028.50 1028.29 1028.11
1028.61 1028.46 1028.33 1028.21 1028.13 1028.08 1028.08 1028.13 1028.22 1028.34 1028.49 1028.66 1028.83 1028.98 1029.13 1029.25 1029.36 1029.44 1029.51 1029.57 1029.61 1029.65 1029.69 1029.72 1029.74 1029.76 1029.78 1029.79 1029.79 1029.79 1029.78 1029.74 1029.68 1029.59 1029.46 1029.29 1029.08 1028.83 1028.56 1028.28 1028.01 1027.75 1027.52
1029.41 1029.26 1029.12 1029.01 1028.92 1028.87 1028.85 1028.87 1028.92 1029.01 1029.12 1029.24 1029.37 1029.49 1029.60 1029.70 1029.78 1029.85 1029.89 1029.93 1029.94 1029.94 1029.94 1029.93 1029.91 1029.88 1029.86 1029.83 1029.80 1029.77 1029.72 1029.66 1029.57 1029.44 1029.28 1029.07 1028.81 1028.52 1028.21 1027.88 1027.55 1027.25 1026.98
Thickness
5610 5610 5610 5610 5611 5612 5612 5613 5614 5616 5617 5618 5619 5620 5621 5622 5623 5623 5623 5625 5626 5628 5629 5630 5630 5631 5632 5632 5633 5633 5633 5633 5634 5634 5634 5634 5635 5635 5635 5635 5636 5636 5636
5602 5602 5603 5603 5603 5604 5604 5605 5606 5607 5608 5609 5610 5611 5612 5613 5614 5615 5615 5616 5617 5619 5620 5621 5622 5623 5624 5625 5625 5626 5626 5626 5626 5626 5627 5627 5628 5628 5628 5629 5629 5629 5630
5593 5594 5594 5595 5595 5595 5596 5597 5598 5599 5599 5600 5600 5601 5602 5603 5604 5605 5606 5607 5608 5609 5611 5612 5613 5615 5616 5617 5618 5618 5618 5618 5619 5619 5619 5620 5620 5621 5621 5622 5623 5623 5623
5584 5585 5585 5585 5586 5586 5586 5587 5588 5588 5588 5589 5590 5591 5592 5593 5594 5595 5597 5598 5599 5600 5601 5602 5604 5606 5607 5608 5609 5610 5610 5611 5611 5612 5612 5612 5613 5613 5614 5615 5616 5616 5617
5575 5575 5576 5576 5576 5576 5577 5578 5578 5578 5577 5577 5578 5580 5581 5582 5584 5585 5587 5588 5589 5590 5591 5592 5594 5596 5597 5599 5600 5601 5602 5602 5603 5603 5604 5604 5605 5606 5606 5607 5608 5609 5610
5565 5565 5566 5566 5567 5567 5567 5567 5567 5567 5567 5567 5568 5568 5570 5571 5573 5574 5576 5577 5579 5580 5581 5582 5584 5586 5588 5589 5590 5592 5593 5594 5594 5595 5595 5596 5596 5598 5598 5599 5600 5601 5602
5554 5555 5556 5556 5556 5556 5556 5557 5557 5556 5555 5556 5555 5555 5557 5560 5561 5563 5565 5566 5568 5569 5570 5572 5573 5575 5577 5578 5580 5582 5583 5584 5585 5586 5586 5587 5588 5589 5590 5591 5592 5593 5593
5544 5544 5545 5545 5545 5546 5546 5546 5546 5545 5544 5545 5544 5543 5543 5546 5549 5552 5553 5555 5556 5558 5559 5561 5563 5565 5566 5568 5570 5571 5573 5574 5576 5577 5577 5578 5579 5580 5581 5582 5583 5583 5585
5532 5533 5533 5534 5534 5535 5535 5534 5534 5534 5533 5533 5534 5534 5533 5534 5535 5539 5541 5543 5545 5546 5548 5550 5552 5554 5556 5558 5559 5560 5562 5563 5565 5567 5568 5569 5570 5571 5571 5572 5573 5574 5575
5521 5522 5522 5522 5523 5523 5523 5523 5523 5523 5522 5521 5522 5523 5524 5525 5524 5525 5529 5531 5533 5535 5536 5539 5540 5542 5544 5546 5548 5549 5551 5552 5554 5555 5557 5558 5559 5560 5561 5563 5563 5564 5565
5509 5510 5509 5510 5511 5512 5512 5512 5511 5511 5511 5511 5511 5511 5513 5514 5515 5513 5515 5518 5520 5523 5525 5527 5529 5531 5533 5535 5536 5537 5539 5540 5542 5544 5546 5547 5549 5550 5551 5552 5553 5554 5555
5497 5497 5498 5498 5499 5499 5500 5500 5499 5499 5499 5500 5500 5501 5502 5502 5503 5504 5504 5506 5508 5511 5514 5516 5518 5520 5522 5523 5524 5526 5527 5529 5531 5533 5535 5536 5537 5538 5540 5541 5542 5543 5544
5485 5486 5486 5486 5486 5487 5488 5488 5487 5487 5488 5488 5489 5490 5491 5492 5493 5494 5494 5495 5497 5500 5502 5505 5507 5509 5510 5511 5512 5514 5515 5517 5519 5521 5523 5524 5525 5527 5528 5530 5531 5532 5533
5474 5474 5474 5474 5474 5474 5475 5475 5475 5475 5476 5476 5477 5478 5479 5480 5481 5482 5483 5483 5484 5487 5490 5493 5495 5497 5498 5499 5501 5502 5503 5505 5507 5509 5511 5513 5514 5515 5517 5518 5520 5521 5522
5462 5462 5462 5462 5462 5462 5462 5463 5463 5463 5463 5464 5465 5466 5467 5468 5470 5471 5471 5472 5472 5473 5478 5481 5481 5484 5485 5487 5488 5490 5491 5493 5495 5497 5500 5502 5503 5504 5506 5507 5508 5510 5511
5450 5450 5450 5450 5450 5450 5450 5451 5451 5451 5451 5451 5452 5453 5454 5456 5457 5458 5459 5460 5462 5463 5465 5469 5469 5471 5472 5473 5475 5477 5480 5482 5483 5486 5488 5490 5491 5493 5494 5496 5497 5498 5499
5438 5438 5438 5438 5437 5438 5438 5438 5438 5439 5439 5439 5439 5440 5441 5442 5444 5445 5446 5447 5449 5450 5451 5456 5456 5458 5458 5460 5462 5465 5467 5470 5472 5474 5476 5478 5480 5481 5483 5484 5485 5486 5487
5425 5425 5425 5425 5425 5425 5425 5425 5425 5426 5426 5426 5426 5427 5428 5429 5430 5431 5433 5434 5435 5437 5437 5440 5442 5443 5445 5447 5449 5452 5455 5457 5459 5461 5464 5466 5468 5470 5471 5472 5473 5474 5475
5412 5412 5412 5412 5412 5412 5412 5412 5412 5413 5413 5414 5414 5414 5415 5416 5417 5418 5419 5420 5421 5423 5424 5426 5428 5430 5431 5433 5435 5438 5441 5444 5446 5449 5451 5453 5455 5457 5458 5459 5460 5461 5463
5399 5399 5399 5399 5399 5399 5399 5399 5399 5400 5400 5401 5401 5402 5403 5403 5405 5405 5406 5407 5408 5409 5410 5411 5414 5415 5416 5419 5420 5423 5426 5429 5432 5434 5437 5440 5442 5444 5445 5446 5448 5448 5449
5386 5386 5386 5386 5386 5386 5387 5387 5387 5387 5387 5388 5389 5390 5391 5392 5393 5393 5394 5394 5395 5395 5396 5397 5399 5401 5402 5403 5406 5409 5411 5414 5417 5420 5423 5426 5428 5430 5431 5432 5433 5435 5436
5372 5373 5373 5374 5374 5375 5376 5376 5375 5375 5375 5375 5376 5377 5378 5379 5380 5381 5381 5382 5382 5382 5383 5383 5386 5387 5390 5390 5391 5393 5395 5398 5402 5406 5406 5410 5411 5415 5417 5418 5420 5421 5422
5358 5359 5360 5361 5362 5363 5364 5364 5363 5363 5363 5364 5364 5364 5366 5367 5367 5367 5368 5368 5368 5369 5371 5371 5372 5374 5376 5377 5377 5379 5381 5383 5387 5389 5390 5396 5397 5400 5402 5404 5405 5406 5408
5344 5345 5346 5348 5349 5350 5351 5351 5351 5351 5352 5352 5352 5352 5353 5354 5355 5354 5354 5355 5355 5356 5357 5357 5359 5361 5362 5362 5363 5364 5366 5368 5371 5373 5374 5379 5382 5384 5387 5388 5389 5391 5392
5330 5331 5332 5334 5335 5337 5338 5339 5340 5339 5340 5340 5340 5341 5341 5342 5342 5342 5342 5342 5342 5342 5342 5344 5345 5347 5348 5349 5349 5349 5350 5352 5356 5358 5359 5361 5366 5367 5372 5374 5375 5376 5377
5317 5318 5320 5321 5322 5324 5326 5327 5327 5328 5328 5328 5328 5329 5329 5330 5330 5330 5329 5329 5328 5329 5329 5329 5331 5332 5333 5334 5334 5334 5336 5337 5339 5342 5345 5344 5347 5348 5354 5361 5361 5361 5361